Terminal Aerodrome Forecast
Issued by NWS Sterling, VA

Current Version | Previous Version | Graphics & Text | Print | Product List | Glossary On
Versions: 1 2 3 4 5 6 7 8 9 10 11 12 13 14 15 16 17 18 19 20 21
000
FTUS41 KLWX 152000 AAA
TAFIAD
TAF AMD
KIAD 152058Z 1521/1624 24003KT P6SM BKN070
     FM161300 32007KT P6SM BKN050
     FM161600 33011G19KT P6SM SCT050
     FM162100 34007KT P6SM FEW050=

USA.gov is the U.S. government's official web portal to all federal, state and local government web resources and services.